[[{"header":{"parameterUnit":"m.s-1","parameterCategory":1,"la1":30.2991,"la2":30.254,"lo1":-89.0895,"lo2":-89.0444,"dx":0.0017,"dy":0.0017,"nx":28,"ny":28,"refTime":"2022-11-17T15:00:00:Z","depth":0,"parameterNumber":2,"parameterNumberName":"U-component_of_WINDS"},"data":[0,0,0,0,0,0,0,0,0,0,0,0,0,0,0,0,0,0,0,0,0,0,0,0,0,0,0,0,0,0,0,0,0,0,0,0,0,0,0,0,0,0,0,0,0,0,0,0,0,0,0,0,0,0,0,0,0,0,-0.582,-0.5821,0,-0.5884,-0.5885,-0.5886,-0.5904,-0.5903,-0.5903,-0.5903,-0.5971,-0.5973,-0.5975,0,0,0,0,0,0,0,0,0,0,0,0,0,-0.5716,-0.5718,-0.582,-0.5821,-0.5822,-0.5884,-0.5885,-0.5886,-0.5904,-0.5903,-0.5903,-0.5903,-0.597,-0.5973,-0.5975,0,0,0,0,0,0,0,0,0,0,0,0,0,-0.5769,-0.5719,-0.582,-0.5838,-0.5841,-0.5884,-0.5885,-0.5886,-0.5904,-0.5903,-0.5903,-0.5902,-0.5969,-0.5973,-0.5976,-0.6007,0,0,-0.5986,-0.5987,0,0,0,0,0,0,0,0,-0.5766,-0.5773,-0.5835,-0.5837,-0.584,-0.5885,-0.5873,-0.5927,-0.5904,-0.588,-0.5903,-0.5902,-0.5943,-0.5949,-0.5962,-0.601,-0.6013,-0.5986,-0.5988,-0.5989,-0.599,0,0,0,0,0,0,0,-0.5762,-0.577,-0.5846,-0.5836,-0.5839,-0.5844,-0.5851,-0.5884,-0.5914,-0.5882,-0.5884,-0.5891,-0.5944,-0.5959,-0.5964,-0.6014,-0.5986,-0.5989,-0.5991,-0.5992,-0.6091,-0.6092,0,0,0,0,0,0,-0.5755,-0.5767,-0.5844,-0.5848,-0.5801,-0.5846,-0.5854,-0.5871,-0.5914,-0.5919,-0.5891,-0.5891,-0.5953,-0.596,-0.5966,-0.6006,-0.5989,-0.5992,-0.5994,-0.609,-0.6091,-0.6092,0,0,0,0,0,0,-0.5753,-0.5762,-0.5841,-0.5808,-0.5818,-0.5849,-0.5868,-0.5873,-0.5887,-0.592,-0.5926,-0.59,-0.5953,-0.5961,-0.5996,-0.6008,-0.5994,-0.5997,-0.609,-0.6091,-0.6092,-0.6084,0,0,0,0,0,0,-0.575,-0.5761,-0.5772,-0.5808,-0.582,-0.587,-0.5869,-0.5875,-0.5892,-0.5893,-0.593,-0.5936,-0.5953,-0.5991,-0.6,-0.6012,-0.5999,-0.6089,-0.609,-0.6091,-0.6084,-0.6085,-0.6086,0,0,0,0,0,-0.5746,-0.5768,-0.5773,-0.5782,-0.5835,-0.587,-0.5877,-0.5896,-0.5893,-0.5906,-0.5927,-0.5935,-0.6005,-0.5995,-0.6004,-0.6018,-0.6088,-0.609,-0.6091,-0.6083,-0.6085,-0.6086,0,0,0,0,0,0,-0.5735,-0.5773,-0.5779,-0.5813,-0.5838,-0.5873,-0.5889,-0.5897,-0.5925,-0.5924,-0.5947,-0.5956,-0.5989,-0.6007,-0.5995,-0.605,-0.6047,-0.605,-0.6038,-0.604,-0.6041,-0.6036,-0.6002,0,0,0,0,0,-0.5736,-0.576,-0.5793,-0.5821,-0.5833,-0.5859,-0.5875,-0.5887,-0.5915,-0.5926,-0.5949,-0.5976,-0.6005,-0.6023,-0.6051,-0.6086,-0.6095,-0.61,-0.6101,-0.6102,-0.6105,-0.6126,-0.6129,-0.6097,-0.6097,-0.6097,0,0,-0.5739,-0.5763,-0.5778,-0.5819,-0.584,-0.5866,-0.5868,-0.5895,-0.5915,-0.593,-0.5964,-0.5983,-0.6014,-0.605,-0.6066,-0.6066,-0.6116,-0.6104,-0.6105,-0.6107,-0.6128,-0.6131,-0.6134,-0.6098,-0.6098,-0.6098,0,0,-0.5759,-0.5779,-0.5804,-0.5825,-0.5856,-0.5873,-0.5879,-0.5913,-0.5925,-0.596,-0.5972,-0.5996,-0.6044,-0.6066,-0.6084,-0.6111,-0.612,-0.6119,-0.6126,-0.6146,-0.6149,-0.6151,-0.6162,-0.6165,-0.6122,-0.6122,-0.6122,0,-0.5759,-0.5798,-0.5816,-0.5843,-0.5861,-0.5875,-0.5901,-0.592,-0.5959,-0.5972,-0.597,-0.603,-0.6053,-0.6094,-0.61,-0.6114,-0.6122,-0.6116,-0.6147,-0.6149,-0.6152,-0.6162,-0.6166,-0.6122,-0.6122,-0.6122,-0.6122,0,-0.5798,-0.5824,-0.5841,-0.5877,-0.5897,-0.5923,-0.5946,-0.5964,-0.5975,-0.5992,-0.6027,-0.6054,-0.6088,-0.6098,-0.6109,-0.6141,-0.614,-0.6142,-0.6139,-0.6154,-0.6165,-0.6169,-0.6122,-0.6122,-0.6122,-0.6122,0,0,-0.5813,-0.5858,-0.5864,-0.5881,-0.5916,-0.5937,-0.5964,-0.5996,-0.6012,-0.6038,-0.6062,-0.6102,-0.6104,-0.6124,-0.6137,-0.6155,-0.6175,-0.6155,-0.6156,-0.6159,-0.6213,-0.6212,-0.6216,-0.6181,-0.6182,-0.6182,-0.6211,0,-0.5838,-0.5886,-0.5903,-0.5943,-0.5968,-0.5981,-0.6005,-0.6029,-0.6046,-0.6071,-0.6089,-0.6118,-0.6118,-0.613,-0.6148,-0.6169,-0.6187,-0.6167,-0.6205,-0.6206,-0.6197,-0.6222,-0.6221,-0.6247,-0.6215,-0.6216,-0.6216,0,-0.5873,-0.5899,-0.5941,-0.5973,-0.5984,-0.6005,-0.6036,-0.6059,-0.6087,-0.6098,-0.612,-0.6132,-0.6162,-0.6156,-0.6198,-0.6184,-0.62,-0.6213,-0.6214,-0.6219,-0.6213,-0.6229,-0.6255,-0.6259,-0.6222,-0.6222,-0.6222,0,-0.5881,-0.5927,-0.5958,-0.5972,-0.6009,-0.6024,-0.604,-0.6068,-0.6086,-0.6113,-0.6125,-0.6155,-0.6172,-0.6196,-0.6216,-0.621,-0.6257,-0.6252,-0.6268,-0.6267,-0.6278,-0.6277,-0.6309,-0.6286,-0.6286,-0.6286,-0.6286,0,-0.5908,-0.5934,-0.5962,-0.5981,-0.601,-0.603,-0.6058,-0.6076,-0.61,-0.6124,-0.6137,-0.6159,-0.6183,-0.6209,-0.6225,-0.6258,-0.6265,-0.6276,-0.628,-0.6275,-0.6274,-0.6287,-0.6286,-0.6287,-0.6287,-0.6287,-0.6287,0,-0.5923,-0.5942,-0.5977,-0.601,-0.6018,-0.6039,-0.6067,-0.6087,-0.6103,-0.6133,-0.6141,-0.6168,-0.6199,-0.6221,-0.6261,-0.6272,-0.6307,-0.6311,-0.6297,-0.63,-0.6314,-0.6313,-0.6356,-0.6363,-0.6335,-0.6335,-0.6335,0,-0.5939,-0.5959,-0.5993,-0.6009,-0.6025,-0.6051,-0.6069,-0.6089,-0.6108,-0.6141,-0.6157,-0.6188,-0.6215,-0.6263,-0.6287,-0.6318,-0.6323,-0.6336,-0.6328,-0.6323,-0.6325,-0.6324,-0.6326,-0.6338,-0.6338,-0.6338,-0.6338,0,-0.5966,-0.5974,-0.6,-0.6029,-0.605,-0.6074,-0.6098,-0.6111,-0.6135,-0.6155,-0.6186,-0.6206,-0.6246,-0.6278,-0.6311,-0.6329,-0.6338,-0.634,-0.6346,-0.6342,-0.6334,-0.6339,-0.6302,-0.6339,-0.6339,-0.6339,-0.6339,-0.6339,-0.5983,-0.6001,-0.6028,-0.6056,-0.6075,-0.6098,-0.6118,-0.6137,-0.6162,-0.6196,-0.6206,-0.6239,-0.6267,-0.6311,-0.633,-0.6356,-0.6356,-0.6363,-0.6366,-0.6367,-0.6368,-0.6328,-0.6362,-0.6362,-0.6362,-0.6362,-0.6362,0,-0.6011,-0.6029,-0.6054,-0.6087,-0.6109,-0.6114,-0.6141,-0.6159,-0.6187,-0.6212,-0.6237,-0.6273,-0.6303,-0.6329,-0.6361,-0.6377,-0.6382,-0.6385,-0.6385,-0.6389,-0.6366,-0.6358,-0.638,-0.638,-0.638,-0.638,-0.638,-0.638,-0.6029,-0.606,-0.6072,-0.6114,-0.6131,-0.6162,-0.6177,-0.6198,-0.6218,-0.6257,-0.6282,-0.6298,-0.6324,-0.6357,-0.6385,-0.6392,-0.6404,-0.6406,-0.6414,-0.6392,-0.639,-0.6388,-0.6382,-0.6408,-0.6408,-0.6435,-0.6435,-0.6435]},{"header":{"parameterUnit":"m.s-1","parameterCategory":1,"la1":30.2991,"la2":30.254,"lo1":-89.0895,"lo2":-89.0444,"dx":0.0017,"dy":0.0017,"nx":28,"ny":28,"refTime":"2022-11-17T15:00:00:Z","depth":0,"parameterNumber":3,"parameterNumberName":"V-component_of_WINDS"},"data":[0,0,0,0,0,0,0,0,0,0,0,0,0,0,0,0,0,0,0,0,0,0,0,0,0,0,0,0,0,0,0,0,0,0,0,0,0,0,0,0,0,0,0,0,0,0,0,0,0,0,0,0,0,0,0,0,0,0,-2.205,-2.2051,0,-2.2174,-2.2176,-2.2177,-2.2221,-2.2221,-2.222,-2.222,-2.2347,-2.2351,-2.2354,0,0,0,0,0,0,0,0,0,0,0,0,0,-2.185,-2.1853,-2.205,-2.2051,-2.2053,-2.2174,-2.2176,-2.2177,-2.2221,-2.2221,-2.222,-2.222,-2.2346,-2.235,-2.2355,0,0,0,0,0,0,0,0,0,0,0,0,0,-2.1952,-2.1854,-2.2049,-2.2089,-2.2094,-2.2174,-2.2176,-2.2178,-2.2222,-2.2221,-2.222,-2.222,-2.2344,-2.235,-2.2355,-2.2404,0,0,-2.2373,-2.2375,0,0,0,0,0,0,0,0,-2.1946,-2.1959,-2.2082,-2.2087,-2.2092,-2.2182,-2.2152,-2.2254,-2.2222,-2.2173,-2.222,-2.2219,-2.2292,-2.2302,-2.2327,-2.241,-2.2415,-2.2373,-2.2377,-2.2379,-2.2381,0,0,0,0,0,0,0,-2.1939,-2.1954,-2.2099,-2.2084,-2.209,-2.2101,-2.2115,-2.2171,-2.2235,-2.2177,-2.2181,-2.2195,-2.2295,-2.2322,-2.233,-2.2417,-2.2373,-2.2378,-2.2382,-2.2384,-2.2548,-2.2548,0,0,0,0,0,0,-2.1925,-2.1948,-2.2095,-2.2103,-2.2016,-2.2105,-2.2121,-2.2154,-2.2235,-2.2246,-2.2195,-2.2197,-2.2312,-2.2324,-2.2335,-2.2399,-2.2379,-2.2384,-2.2388,-2.2547,-2.2548,-2.2549,0,0,0,0,0,0,-2.192,-2.1938,-2.209,-2.2026,-2.2046,-2.2109,-2.2146,-2.2156,-2.2183,-2.2248,-2.226,-2.2211,-2.2312,-2.2327,-2.2387,-2.2404,-2.2387,-2.2392,-2.2546,-2.2547,-2.2548,-2.2525,0,0,0,0,0,0,-2.1915,-2.1936,-2.1955,-2.2026,-2.205,-2.214,-2.2147,-2.2159,-2.2193,-2.2195,-2.2266,-2.2277,-2.2313,-2.2378,-2.2393,-2.2411,-2.2397,-2.2544,-2.2546,-2.2548,-2.2525,-2.2526,-2.2527,0,0,0,0,0,-2.1907,-2.1943,-2.1956,-2.1973,-2.2075,-2.2141,-2.2154,-2.2195,-2.2194,-2.2214,-2.2256,-2.2274,-2.2399,-2.2384,-2.24,-2.2421,-2.2544,-2.2546,-2.2548,-2.2525,-2.2526,-2.2527,0,0,0,0,0,0,-2.1872,-2.1953,-2.1968,-2.2028,-2.2077,-2.2148,-2.2174,-2.2194,-2.2245,-2.2245,-2.2293,-2.2309,-2.2365,-2.2399,-2.238,-2.2473,-2.2472,-2.2478,-2.2449,-2.2451,-2.2452,-2.2443,-2.2401,0,0,0,0,0,-2.1871,-2.1918,-2.1986,-2.2033,-2.2056,-2.2111,-2.2141,-2.2168,-2.2221,-2.2242,-2.2288,-2.2339,-2.2389,-2.2422,-2.2472,-2.253,-2.2546,-2.2552,-2.2553,-2.2553,-2.2558,-2.2592,-2.2596,-2.2556,-2.2556,-2.2556,0,0,-2.187,-2.192,-2.1947,-2.2027,-2.2068,-2.2116,-2.2128,-2.2178,-2.2214,-2.2249,-2.2309,-2.2345,-2.2404,-2.2464,-2.2492,-2.2494,-2.2572,-2.2556,-2.2556,-2.256,-2.2595,-2.2599,-2.2602,-2.2557,-2.2557,-2.2557,0,0,-2.1893,-2.1935,-2.1979,-2.202,-2.2082,-2.2118,-2.2129,-2.2197,-2.2222,-2.2283,-2.2311,-2.2354,-2.244,-2.2482,-2.2514,-2.2552,-2.2572,-2.2567,-2.2572,-2.2605,-2.2608,-2.2611,-2.2627,-2.2631,-2.2571,-2.2571,-2.2571,0,-2.1883,-2.1956,-2.1999,-2.2047,-2.2082,-2.2117,-2.2162,-2.22,-2.2275,-2.2298,-2.2299,-2.2408,-2.245,-2.252,-2.253,-2.2554,-2.2568,-2.256,-2.2604,-2.2608,-2.2611,-2.2626,-2.2632,-2.257,-2.257,-2.2571,-2.2571,0,-2.1943,-2.1993,-2.2021,-2.2093,-2.2131,-2.2177,-2.2227,-2.226,-2.2284,-2.232,-2.2382,-2.2433,-2.2495,-2.2513,-2.2537,-2.2587,-2.2587,-2.2595,-2.2596,-2.2614,-2.2629,-2.2635,-2.2569,-2.2569,-2.257,-2.257,0,0,-2.1947,-2.2043,-2.2053,-2.2087,-2.2158,-2.2198,-2.2245,-2.2306,-2.2334,-2.2385,-2.2427,-2.2499,-2.2507,-2.2544,-2.2572,-2.2601,-2.263,-2.2606,-2.2608,-2.261,-2.269,-2.2685,-2.2691,-2.2642,-2.2644,-2.2645,-2.2686,0,-2.198,-2.2069,-2.2108,-2.2179,-2.2226,-2.226,-2.2302,-2.235,-2.2385,-2.243,-2.2468,-2.2519,-2.2526,-2.2548,-2.2578,-2.262,-2.2647,-2.2617,-2.2683,-2.2685,-2.2669,-2.2698,-2.2693,-2.2729,-2.2692,-2.2693,-2.2694,0,-2.2031,-2.2083,-2.2158,-2.2225,-2.2246,-2.2283,-2.2343,-2.2385,-2.2441,-2.2464,-2.2505,-2.2532,-2.2584,-2.258,-2.2653,-2.2632,-2.2661,-2.2686,-2.2688,-2.2697,-2.2692,-2.271,-2.2742,-2.2748,-2.2703,-2.2702,-2.2702,0,-2.2029,-2.2117,-2.2174,-2.2202,-2.228,-2.2306,-2.234,-2.2395,-2.2429,-2.248,-2.2503,-2.256,-2.2591,-2.2635,-2.2676,-2.2669,-2.2746,-2.2745,-2.2768,-2.2767,-2.2784,-2.2782,-2.2822,-2.2799,-2.2799,-2.2799,-2.2799,0,-2.2063,-2.2108,-2.2174,-2.2209,-2.2261,-2.2306,-2.2356,-2.2392,-2.244,-2.2483,-2.2515,-2.2554,-2.2607,-2.2653,-2.2686,-2.2742,-2.2755,-2.2776,-2.2785,-2.2774,-2.2772,-2.2795,-2.2795,-2.28,-2.28,-2.28,-2.28,0,-2.207,-2.2116,-2.2181,-2.225,-2.2268,-2.2303,-2.2363,-2.2398,-2.2434,-2.2488,-2.2503,-2.256,-2.2616,-2.2662,-2.2735,-2.2757,-2.2817,-2.2825,-2.2798,-2.2803,-2.2824,-2.2822,-2.2881,-2.2892,-2.286,-2.286,-2.286,0,-2.209,-2.2126,-2.2199,-2.223,-2.2264,-2.2313,-2.2349,-2.2394,-2.243,-2.2496,-2.2523,-2.2582,-2.2631,-2.2719,-2.2767,-2.2823,-2.2835,-2.2852,-2.2843,-2.2832,-2.2837,-2.2835,-2.284,-2.2853,-2.2853,-2.2853,-2.2853,0,-2.212,-2.2141,-2.2191,-2.2249,-2.2291,-2.2339,-2.2387,-2.2411,-2.2465,-2.2503,-2.2561,-2.2599,-2.2674,-2.2732,-2.2794,-2.2829,-2.2851,-2.2855,-2.2864,-2.2855,-2.2838,-2.2849,-2.2802,-2.2854,-2.2854,-2.2854,-2.2854,-2.2854,-2.2136,-2.2169,-2.2227,-2.2281,-2.2323,-2.2367,-2.2405,-2.2445,-2.2495,-2.256,-2.2583,-2.2643,-2.2698,-2.2783,-2.2818,-2.2866,-2.2868,-2.288,-2.2883,-2.2886,-2.2886,-2.2829,-2.2877,-2.2877,-2.2877,-2.2877,-2.2877,0,-2.2169,-2.2208,-2.2258,-2.2325,-2.2368,-2.2384,-2.2439,-2.2474,-2.2526,-2.2576,-2.2624,-2.2691,-2.2747,-2.28,-2.2859,-2.2887,-2.2898,-2.2901,-2.29,-2.2908,-2.2879,-2.2867,-2.2891,-2.2891,-2.2891,-2.2891,-2.2891,-2.2891,-2.2192,-2.2251,-2.2278,-2.2358,-2.2396,-2.2455,-2.2485,-2.2527,-2.2567,-2.264,-2.2687,-2.2721,-2.2772,-2.2835,-2.2888,-2.2901,-2.2922,-2.2923,-2.2939,-2.2912,-2.291,-2.2908,-2.2897,-2.2926,-2.2926,-2.2965,-2.2965,-2.2965]}]]